星链-5658 (STARLINK-5658 )

导读

STARLINK-5658是美国太空探索技术公司(SpaceX)星链计划中的卫星,于北京时间2023年1月26日08:00发射升空。它属于星链星座组网卫星,旨在为全球提供高速低延迟互联网覆盖,进一步推进星链系统的全球部署进程,增强星座的服务能力与覆盖范围,推动全球互联网普及进程。

基本信息
目录编号:
55338
目录名称:
STARLINK-5658
国际标识:
2023-013H
轨道中心:
EARTH
卫星名称:
星链-5658
卫星全名:
星链-5658 (STARLINK-5658 )
卫星状态:
在轨 (已飞行1325 天)
发射日期:
2023-01-26 UTC
国别 :
美国 (US)
星等 :
--
该卫星已列入 空间交会检测服务 Space Conjunction Data Service (SCDS) ,当前飞行风险评估等级: 无高风险
轨道信息
数据来源 国际轨道数据 AOE轨道数据
星历时间 2026-09-12T14:14:55+0800
11小时前
查看轨道信息
2026-09-10T08:00:00+0800
2天前
查看轨道信息
半长轴 6861.192km 6861.206km
偏心率 0.0001598 0.0001847
轨道倾角 43.005° 43.004°
近地点辐角 284.743° 269.844°
升交点赤经 330.046° 342.814°
平近点角 75.324° 245.306°
近地点 481.958km 481.801km
远地点 484.152km 484.337km
周期 94.267分钟 94.267分钟
每日圈数 15.275782 15.275734
详细信息
固有亮度:
5
最大亮度:
2.5
卫星平台:
Starlink v1.5
覆盖范围:
全球
运营商:
太空探索技术公司
运营商所在国:
美国
制造商(研发单位):
太空探索技术公司
制造商所在国:
美国
使用方式:
暂无
卫星简介
星链(Starlink)计划是由太空探索技术公司(SpaceX)提出的一个巨型低轨卫星互联网星座项目,计划在2019年至2024年间在太空搭建由约1.2万颗卫星组成的“星链”网络,其中1584颗将部署在地球上空550千米处的近地轨道,并从2020年开始工作。该卫星仍在工作。
2D轨道图
3D轨道图
轨道高度分析图
轨道倾角分析图
轨道综合分析图
查看轨道综合分析图
与全量物体交会距离演化趋势
与全量物体交会风险概率演化趋势